NG6B-2 Weather Reports


Display with metric or nautical units.
time (UTC)temp
F
wind
direction
speed
MPH
gust
MPH
rain 1hr
in
rain 24hr
in
rain mn
in
humidity
%
barometer
mb
20260506000517 72 235 6.0 22.0 0.00 0.08 0.07 24 1003.6
20260505233516 73 226 6.0 17.0 0.00 0.08 0.07 20 1003.3
20260505230515 74 255 4.0 16.0 0.00 0.08 0.07 27 1003.2
20260505223514 74 277 8.0 17.0 0.00 0.08 0.07 28 1003.5
20260505220513 74 259 11.0 18.0 0.00 0.08 0.07 30 1003.8
20260505213512 75 165 8.0 18.0 0.00 0.08 0.07 30 1004.1
20260505210511 74 174 1.0 19.0 0.00 0.08 0.07 32 1004.2
20260505203510 75 239 8.0 19.0 0.00 0.08 0.07 31 1004.7
20260505200509 74 259 7.0 17.0 0.00 0.08 0.07 32 1004.8
20260505193508 72 156 3.0 17.0 0.00 0.08 0.07 36 1004.9
20260505190507 70 297 3.0 6.0 0.00 0.08 0.07 50 1005.2
20260505183506 68 212 3.0 6.0 0.00 0.08 0.07 53 1005.7
20260505180505 68 295 3.0 4.0 0.00 0.08 0.07 54 1005.9
20260505173504 66 318 5.0 6.0 0.00 0.08 0.07 58 1006.1
20260505170503 66 335 1.0 8.0 0.00 0.08 0.07 59 1006.2
20260505163502 64 322 3.0 7.0 0.00 0.08 0.07 64 1006.4
20260505160501 64 262 5.0 7.0 0.00 0.08 0.07 64 1006.2
20260505150459 59 86 0.0 0.0 0.00 0.08 0.07 79 1006.0
20260505140457 57 96 0.0 2.0 0.00 0.08 0.07 86 1005.7
20260505123454 56 37 0.0 0.0 0.00 0.08 0.07 90 1004.9
20260505120453 56 90 0.0 5.0 0.00 0.08 0.07 88 1004.7
20260505113452 56 83 2.0 7.0 0.00 0.08 0.07 89 1004.3
20260505110451 56 112 3.0 5.0 0.00 0.08 0.07 89 1005.1
20260505100449 56 84 2.0 3.0 0.00 0.08 0.07 90 1005.9
20260505093448 57 98 4.0 6.0 0.00 0.08 0.07 90 1006.6
20260505090447 57 96 2.0 6.0 0.02 0.08 0.07 89 1007.6
20260505083446 57 110 0.0 1.0 0.04 0.08 0.07 87 1008.3
20260505080445 58 273 0.0 3.0 0.04 0.06 0.05 84 1008.8
20260505073444 58 273 0.0 1.0 0.02 0.03 0.02 84 1008.9
20260505070443 59 142 0.0 0.0 0.02 0.02 0.01 84 1008.7
20260505063442 60 291 0.0 0.0 0.01 0.01 0.01 77 1008.4
20260505060441 61 301 0.0 0.0 0.00 0.00 0.00 70 1008.6
20260505053440 61 280 0.0 5.0 0.00 0.00 0.00 62 1008.1
20260505050439 61 274 6.0 6.0 0.00 0.00 0.00 60 1008.5
20260505040437 62 91 0.0 0.0 0.00 0.00 0.00 55 1008.0
20260505033436 62 229 0.0 2.0 0.00 0.00 0.00 54 1007.7
20260505030435 63 297 4.0 10.0 0.00 0.00 0.00 50 1007.8
20260505023434 64 273 10.0 19.0 0.00 0.00 0.00 40 1007.6
20260505020433 63 309 4.0 14.0 0.00 0.00 0.00 48 1007.4
20260505013432 66 281 4.0 16.0 0.00 0.00 0.00 46 1007.7
20260505010431 67 280 7.0 12.0 0.00 0.00 0.00 38 1006.6
20260505003430 69 333 6.0 17.0 0.00 0.00 0.00 33 1006.8